Location: Alsip
(41.6689°N, 87.7387°W)
Time: 15:17:12
(UTC+00:00)

Cosmos 1812 - Pass Details

Date: 14 July 2020
Orbit: 516 x 522 km, 82.5° (Epoch: 12 August)

Event Time Altitude Azimuth Distance (km) Brightness Sun altitude
Rises 06:04:51 0° 346° (NNW) 2,652 7.5 -26.7°
Reaches altitude 10° 06:07:03 10° 341° (NNW) 1,758 6.2 -26.7°
Enters shadow 06:09:26 33° 319° (NW) 895 4.2 -26.7°
